TimeMST,TemperatureF,Dew PointF,Humidity,Sea Level PressureIn,VisibilityMPH,Wind Direction,Wind SpeedMPH,Gust SpeedMPH,PrecipitationIn,Events,Conditions,WindDirDegrees,DateUTC
12:15 AM,-4.0,-5.8,92,30.52,7.0,Calm,Calm,-,N/A,,Clear,0,2014-01-21 07:15:00
12:35 AM,-2.2,-5.8,85,30.52,7.0,Calm,Calm,-,N/A,,Clear,0,2014-01-21 07:35:00
12:55 AM,-5.8,-9.4,84,30.51,7.0,Calm,Calm,-,N/A,,Clear,0,2014-01-21 07:55:00
1:15 AM,-5.8,-9.4,84,30.51,7.0,Calm,Calm,-,N/A,,Clear,0,2014-01-21 08:15:00
1:35 AM,-4.0,-5.8,92,30.51,7.0,Calm,Calm,-,N/A,,Clear,0,2014-01-21 08:35:00
1:55 AM,-4.0,-5.8,92,30.51,10.0,Calm,Calm,-,N/A,,Clear,0,2014-01-21 08:55:00
2:15 AM,-4.0,-7.6,85,30.51,10.0,Calm,Calm,-,N/A,,Clear,0,2014-01-21 09:15:00
2:35 AM,-4.0,-7.6,85,30.51,10.0,Calm,Calm,-,N/A,,Clear,0,2014-01-21 09:35:00
2:55 AM,-4.0,-7.6,85,30.52,10.0,Calm,Calm,-,N/A,,Clear,0,2014-01-21 09:55:00
3:15 AM,-5.8,-9.4,84,30.52,10.0,Calm,Calm,-,N/A,,Clear,0,2014-01-21 10:15:00
3:35 AM,-7.6,-13.0,77,30.51,10.0,SSW,3.5,-,N/A,,Clear,200,2014-01-21 10:35:00
3:55 AM,-9.4,-14.8,77,30.50,10.0,Calm,Calm,-,N/A,,Clear,0,2014-01-21 10:55:00
4:15 AM,-5.8,-9.4,84,30.49,10.0,NNW,3.5,-,N/A,,Clear,340,2014-01-21 11:15:00
4:35 AM,-5.8,-9.4,84,30.49,10.0,Calm,Calm,-,N/A,,Clear,0,2014-01-21 11:35:00
4:55 AM,-11.2,-16.6,77,30.48,10.0,Calm,Calm,-,N/A,,Clear,0,2014-01-21 11:55:00
5:15 AM,-11.2,-16.6,77,30.49,10.0,Calm,Calm,-,N/A,,Clear,0,2014-01-21 12:15:00
5:35 AM,-13.0,-16.6,84,30.49,10.0,Calm,Calm,-,N/A,,Clear,0,2014-01-21 12:35:00
5:55 AM,-13.0,-18.4,77,30.49,10.0,Calm,Calm,-,N/A,,Clear,0,2014-01-21 12:55:00
6:15 AM,-13.0,-16.6,84,30.48,10.0,Calm,Calm,-,N/A,,Clear,0,2014-01-21 13:15:00
6:35 AM,-13.0,-16.6,84,30.49,10.0,Calm,Calm,-,N/A,,Clear,0,2014-01-21 13:35:00
6:55 AM,-9.4,-13.0,84,30.49,10.0,Calm,Calm,-,N/A,,Clear,0,2014-01-21 13:55:00
7:15 AM,-9.4,-14.8,77,30.49,10.0,Calm,Calm,-,N/A,,Clear,0,2014-01-21 14:15:00
7:35 AM,-9.4,-14.8,77,30.48,10.0,Calm,Calm,-,N/A,,Clear,0,2014-01-21 14:35:00
7:55 AM,-9.4,-14.8,77,30.49,10.0,Calm,Calm,-,N/A,,Clear,0,2014-01-21 14:55:00
8:15 AM,-11.2,-16.6,77,30.49,7.0,Calm,Calm,-,N/A,,Clear,0,2014-01-21 15:15:00
8:35 AM,-14.8,-20.2,77,30.49,7.0,Calm,Calm,-,N/A,,Clear,0,2014-01-21 15:35:00
8:55 AM,-14.8,-20.2,77,30.49,3.0,Calm,Calm,-,N/A,,Haze,0,2014-01-21 15:55:00
9:15 AM,-13.0,-16.6,84,30.49,5.0,Calm,Calm,-,N/A,,Haze,0,2014-01-21 16:15:00
9:35 AM,-7.6,-13.0,77,30.48,7.0,Calm,Calm,-,N/A,,Clear,0,2014-01-21 16:35:00
9:55 AM,-5.8,-11.2,77,30.47,5.0,Calm,Calm,-,N/A,,Haze,0,2014-01-21 16:55:00
10:15 AM,-4.0,-7.6,85,30.48,7.0,North,-9999.0,-,N/A,,Clear,0,2014-01-21 17:15:00
10:35 AM,-0.4,-5.8,78,30.47,7.0,Calm,Calm,-,N/A,,Clear,0,2014-01-21 17:35:00
10:55 AM,1.4,-4.0,78,30.46,10.0,Calm,Calm,-,N/A,,Clear,0,2014-01-21 17:55:00
11:15 AM,1.4,-4.0,78,30.45,10.0,Calm,Calm,-,N/A,,Clear,0,2014-01-21 18:15:00
11:35 AM,3.2,-0.4,85,30.45,10.0,Calm,Calm,-,N/A,,Clear,0,2014-01-21 18:35:00
11:55 AM,3.2,-0.4,85,30.44,10.0,North,-9999.0,-,N/A,,Clear,0,2014-01-21 18:55:00
12:15 PM,5.0,1.4,85,30.43,10.0,Calm,Calm,-,N/A,,Clear,0,2014-01-21 19:15:00
12:35 PM,5.0,1.4,85,30.42,10.0,Calm,Calm,-,N/A,,Clear,0,2014-01-21 19:35:00
12:55 PM,5.0,1.4,85,30.40,10.0,Calm,Calm,-,N/A,,Clear,0,2014-01-21 19:55:00
1:15 PM,8.6,3.2,79,30.39,10.0,Calm,Calm,-,N/A,,Clear,0,2014-01-21 20:15:00
1:35 PM,8.6,5.0,85,30.37,10.0,Calm,Calm,-,N/A,,Clear,0,2014-01-21 20:35:00
1:55 PM,10.4,3.2,73,30.37,7.0,Calm,Calm,-,N/A,,Clear,0,2014-01-21 20:55:00
2:15 PM,10.4,3.2,73,30.36,10.0,Calm,Calm,-,N/A,,Clear,0,2014-01-21 21:15:00
2:35 PM,10.4,3.2,73,30.36,10.0,Calm,Calm,-,N/A,,Clear,0,2014-01-21 21:35:00
2:55 PM,10.4,3.2,73,30.35,10.0,Calm,Calm,-,N/A,,Clear,0,2014-01-21 21:55:00
3:15 PM,12.2,3.2,67,30.34,10.0,Calm,Calm,-,N/A,,Clear,0,2014-01-21 22:15:00
3:35 PM,12.2,3.2,67,30.35,10.0,Calm,Calm,-,N/A,,Clear,0,2014-01-21 22:35:00
3:55 PM,12.2,3.2,67,30.35,10.0,Calm,Calm,-,N/A,,Clear,0,2014-01-21 22:55:00
4:15 PM,12.2,3.2,67,30.34,10.0,Calm,Calm,-,N/A,,Clear,0,2014-01-21 23:15:00
4:35 PM,12.2,3.2,67,30.33,10.0,Calm,Calm,-,N/A,,Clear,0,2014-01-21 23:35:00
4:55 PM,10.4,3.2,73,30.32,10.0,Calm,Calm,-,N/A,,Clear,0,2014-01-21 23:55:00
5:15 PM,10.4,3.2,73,30.32,10.0,Calm,Calm,-,N/A,,Clear,0,2014-01-22 00:15:00
5:35 PM,5.0,1.4,85,30.33,10.0,Calm,Calm,-,N/A,,Clear,0,2014-01-22 00:35:00
5:55 PM,6.8,1.4,79,30.34,10.0,North,-9999.0,-,N/A,,Clear,0,2014-01-22 00:55:00
6:15 PM,5.0,-0.4,78,30.33,10.0,Calm,Calm,-,N/A,,Clear,0,2014-01-22 01:15:00
6:35 PM,3.2,-0.4,85,30.33,10.0,Calm,Calm,-,N/A,,Clear,0,2014-01-22 01:35:00
6:55 PM,3.2,-2.2,78,30.32,7.0,Calm,Calm,-,N/A,,Clear,0,2014-01-22 01:55:00
7:15 PM,5.0,1.4,85,30.33,7.0,Calm,Calm,-,N/A,,Clear,0,2014-01-22 02:15:00
7:35 PM,3.2,-2.2,78,30.32,7.0,Calm,Calm,-,N/A,,Clear,0,2014-01-22 02:35:00
7:55 PM,1.4,-2.2,85,30.32,7.0,Calm,Calm,-,N/A,,Clear,0,2014-01-22 02:55:00
8:15 PM,1.4,-4.0,78,30.31,7.0,Calm,Calm,-,N/A,,Clear,0,2014-01-22 03:15:00
8:35 PM,3.2,-0.4,85,30.31,7.0,NNE,3.5,-,N/A,,Clear,30,2014-01-22 03:35:00
8:55 PM,3.2,-0.4,85,30.31,7.0,Calm,Calm,-,N/A,,Clear,0,2014-01-22 03:55:00
9:15 PM,3.2,-4.0,72,30.30,7.0,Calm,Calm,-,N/A,,Clear,0,2014-01-22 04:15:00
9:35 PM,1.4,-2.2,85,30.30,10.0,North,-9999.0,-,N/A,,Clear,0,2014-01-22 04:35:00
9:55 PM,1.4,-4.0,78,30.30,10.0,Calm,Calm,-,N/A,,Clear,0,2014-01-22 04:55:00
10:15 PM,1.4,-2.2,85,30.30,10.0,Calm,Calm,-,N/A,,Clear,0,2014-01-22 05:15:00
10:35 PM,1.4,-2.2,85,30.30,7.0,Calm,Calm,-,N/A,,Clear,0,2014-01-22 05:35:00
10:55 PM,1.4,-2.2,85,30.30,7.0,Calm,Calm,-,N/A,,Clear,0,2014-01-22 05:55:00
11:15 PM,3.2,-0.4,85,30.30,5.0,Calm,Calm,-,N/A,,Clear,0,2014-01-22 06:15:00
11:35 PM,1.4,-2.2,85,30.30,7.0,Calm,Calm,-,N/A,,Clear,0,2014-01-22 06:35:00
11:55 PM,1.4,-2.2,85,30.30,5.0,Calm,Calm,-,N/A,,Clear,0,2014-01-22 06:55:00